Time,TemperatureF,DewpointF,PressureIn,WindDirection,WindDirectionDegrees,WindSpeedMPH,WindSpeedGustMPH,Humidity,HourlyPrecipIn,Conditions,Clouds,dailyrainin,SoftwareType,DateUTC
2013-07-23 00:02:00,52.9,47.2,29.94,WNW,292,0.0,0.0,81,0.00,,,0.00,WUHU21623XXSP,2013-07-23 07:02:00,
2013-07-23 00:03:00,52.7,47.1,29.95,WSW,247,0.0,0.0,81,0.00,,,0.00,WUHU21623XXSP,2013-07-23 07:03:00,
2013-07-23 00:07:00,52.7,47.4,29.95,SW,225,0.0,0.0,82,0.00,,,0.00,WUHU21623XXSP,2013-07-23 07:07:00,
2013-07-23 00:08:00,52.7,47.4,29.95,SW,225,0.0,0.0,82,0.00,,,0.00,WUHU21623XXSP,2013-07-23 07:08:00,
2013-07-23 00:15:00,52.5,47.2,29.95,SW,225,0.0,0.0,82,0.00,,,0.00,WUHU21623XXSP,2013-07-23 07:15:00,
2013-07-23 00:16:00,52.5,47.2,29.95,SW,225,0.0,0.0,82,0.00,,,0.00,WUHU21623XXSP,2013-07-23 07:16:00,
2013-07-23 00:21:00,52.5,47.2,29.95,WSW,247,0.0,0.0,82,0.00,,,0.00,WUHU21623XXSP,2013-07-23 07:21:00,
2013-07-23 00:26:00,52.7,47.7,29.95,West,270,0.0,0.0,83,0.00,,,0.00,WUHU21623XXSP,2013-07-23 07:26:00,
2013-07-23 00:33:00,52.5,47.5,29.95,WSW,247,0.0,0.0,83,0.00,,,0.00,WUHU21623XXSP,2013-07-23 07:33:00,
2013-07-23 00:38:00,52.5,47.5,29.95,WSW,247,0.0,0.0,83,0.00,,,0.00,WUHU21623XXSP,2013-07-23 07:38:00,
2013-07-23 00:43:00,52.7,47.7,29.95,WSW,247,0.0,0.0,83,0.00,,,0.00,WUHU21623XXSP,2013-07-23 07:43:00,
2013-07-23 00:44:00,52.7,47.7,29.95,WSW,247,0.0,0.0,83,0.00,,,0.00,WUHU21623XXSP,2013-07-23 07:44:00,
2013-07-23 00:48:00,52.7,47.7,29.95,West,270,0.0,0.0,83,0.00,,,0.00,WUHU21623XXSP,2013-07-23 07:48:00,
2013-07-23 00:49:00,52.7,47.7,29.95,West,270,0.0,0.0,83,0.00,,,0.00,WUHU21623XXSP,2013-07-23 07:49:00,
2013-07-23 00:53:00,52.7,48.0,29.95,West,270,0.0,0.0,84,0.00,,,0.00,WUHU21623XXSP,2013-07-23 07:53:00,
2013-07-23 00:54:00,52.7,48.0,29.95,West,270,0.0,0.0,84,0.00,,,0.00,WUHU21623XXSP,2013-07-23 07:54:00,
2013-07-23 00:58:00,52.7,48.0,29.96,WSW,247,0.0,0.0,84,0.00,,,0.00,WUHU21623XXSP,2013-07-23 07:58:00,
2013-07-23 00:59:00,52.9,48.2,29.96,West,270,0.0,0.0,84,0.00,,,0.00,WUHU21623XXSP,2013-07-23 07:59:00,
2013-07-23 01:03:00,52.7,48.0,29.96,West,270,0.0,0.0,84,0.00,,,0.00,WUHU21623XXSP,2013-07-23 08:03:00,
2013-07-23 01:04:00,52.7,48.0,29.96,West,270,0.0,0.0,84,0.00,,,0.00,WUHU21623XXSP,2013-07-23 08:04:00,
2013-07-23 01:09:00,52.7,48.0,29.96,West,270,0.0,0.0,84,0.00,,,0.00,WUHU21623XXSP,2013-07-23 08:09:00,
2013-07-23 01:14:00,52.7,48.0,29.96,West,270,0.0,0.0,84,0.00,,,0.00,WUHU21623XXSP,2013-07-23 08:14:00,
2013-07-23 01:15:00,52.7,48.0,29.96,West,270,0.0,0.0,84,0.00,,,0.00,WUHU21623XXSP,2013-07-23 08:15:00,
2013-07-23 01:19:00,52.7,47.8,29.95,West,270,0.0,0.0,84,0.00,,,0.00,WUHU21623XXSP,2013-07-23 08:19:00,
2013-07-23 01:20:00,52.5,48.0,29.96,West,270,0.0,0.0,84,0.00,,,0.00,WUHU21623XXSP,2013-07-23 08:20:00,
2013-07-23 01:24:00,52.5,47.8,29.96,West,270,0.0,0.0,84,0.00,,,0.00,WUHU21623XXSP,2013-07-23 08:24:00,
2013-07-23 01:25:00,52.5,47.8,29.96,West,270,0.0,0.0,84,0.00,,,0.00,WUHU21623XXSP,2013-07-23 08:25:00,
2013-07-23 01:30:00,52.5,47.8,29.96,West,270,0.0,0.0,84,0.00,,,0.00,WUHU21623XXSP,2013-07-23 08:30:00,
2013-07-23 01:31:00,52.5,47.8,29.96,West,270,0.0,0.0,84,0.00,,,0.00,WUHU21623XXSP,2013-07-23 08:31:00,
2013-07-23 01:35:00,52.5,48.1,29.96,West,270,0.0,0.0,85,0.00,,,0.00,WUHU21623XXSP,2013-07-23 08:35:00,
2013-07-23 01:36:00,52.5,48.1,29.96,West,270,0.0,0.0,85,0.00,,,0.00,WUHU21623XXSP,2013-07-23 08:36:00,
2013-07-23 01:40:00,52.5,48.3,29.96,West,270,0.0,0.0,85,0.00,,,0.00,WUHU21623XXSP,2013-07-23 08:40:00,
2013-07-23 01:41:00,52.5,48.3,29.96,West,270,0.0,0.0,85,0.00,,,0.00,WUHU21623XXSP,2013-07-23 08:41:00,
2013-07-23 01:44:00,52.7,48.3,29.96,WSW,247,0.0,0.0,85,0.00,,,0.00,WUHU21623XXSP,2013-07-23 08:44:00,
2013-07-23 01:45:00,52.7,48.3,29.96,WSW,247,0.0,0.0,85,0.00,,,0.00,WUHU21623XXSP,2013-07-23 08:45:00,
2013-07-23 01:46:00,52.7,48.3,29.96,WSW,247,0.0,0.0,85,0.00,,,0.00,WUHU21623XXSP,2013-07-23 08:46:00,
2013-07-23 01:49:00,52.7,48.3,29.97,WSW,247,0.0,0.0,85,0.00,,,0.00,WUHU21623XXSP,2013-07-23 08:49:00,
2013-07-23 01:50:00,52.5,48.1,29.96,WSW,247,0.0,0.0,85,0.00,,,0.00,WUHU21623XXSP,2013-07-23 08:50:00,
2013-07-23 01:51:00,52.5,48.1,29.96,WSW,247,0.0,0.0,85,0.00,,,0.00,WUHU21623XXSP,2013-07-23 08:51:00,
2013-07-23 01:56:00,52.5,48.1,29.96,WSW,247,0.0,0.0,85,0.00,,,0.00,WUHU21623XXSP,2013-07-23 08:56:00,
2013-07-23 01:57:00,52.5,48.1,29.96,WSW,247,0.0,0.0,85,0.00,,,0.00,WUHU21623XXSP,2013-07-23 08:57:00,
2013-07-23 02:01:00,52.5,48.1,29.97,WSW,247,0.0,0.0,85,0.00,,,0.00,WUHU21623XXSP,2013-07-23 09:01:00,
2013-07-23 02:02:00,52.5,48.1,29.97,WSW,247,0.0,0.0,85,0.00,,,0.00,WUHU21623XXSP,2013-07-23 09:02:00,
2013-07-23 02:06:00,52.5,48.1,29.96,WSW,247,0.0,0.0,85,0.00,,,0.00,WUHU21623XXSP,2013-07-23 09:06:00,
2013-07-23 02:07:00,52.5,48.1,29.96,WSW,247,0.0,0.0,85,0.00,,,0.00,WUHU21623XXSP,2013-07-23 09:07:00,
2013-07-23 02:12:00,52.5,48.1,29.96,SW,225,1.1,1.1,85,0.00,,,0.00,WUHU21623XXSP,2013-07-23 09:12:00,
2013-07-23 02:17:00,52.5,48.1,29.96,WSW,247,0.0,1.1,85,0.00,,,0.00,WUHU21623XXSP,2013-07-23 09:17:00,
2013-07-23 02:20:00,52.3,47.9,29.96,WSW,247,0.0,1.1,85,0.00,,,0.00,WUHU21623XXSP,2013-07-23 09:20:00,
2013-07-23 02:22:00,52.3,47.9,29.96,WSW,247,0.0,0.0,85,0.00,,,0.00,WUHU21623XXSP,2013-07-23 09:22:00,
2013-07-23 02:25:00,52.3,47.9,29.96,WSW,247,0.0,0.0,85,0.00,,,0.00,WUHU21623XXSP,2013-07-23 09:25:00,
2013-07-23 02:27:00,52.3,47.9,29.96,WSW,247,0.0,0.0,85,0.00,,,0.00,WUHU21623XXSP,2013-07-23 09:27:00,
2013-07-23 02:30:00,52.3,47.9,29.96,WSW,247,0.0,0.0,85,0.00,,,0.00,WUHU21623XXSP,2013-07-23 09:30:00,
2013-07-23 02:31:00,52.3,47.9,29.96,WSW,247,0.0,0.0,85,0.00,,,0.00,WUHU21623XXSP,2013-07-23 09:31:00,
2013-07-23 02:32:00,52.3,47.9,29.96,WSW,247,0.0,0.0,85,0.00,,,0.00,WUHU21623XXSP,2013-07-23 09:32:00,
2013-07-23 02:33:00,52.3,47.9,29.96,WSW,247,0.0,0.0,85,0.00,,,0.00,WUHU21623XXSP,2013-07-23 09:33:00,
2013-07-23 02:36:00,52.3,47.9,29.96,WSW,247,0.0,0.0,85,0.00,,,0.00,WUHU21623XXSP,2013-07-23 09:36:00,
2013-07-23 02:37:00,52.3,48.2,29.96,South,180,0.0,0.0,86,0.00,,,0.00,WUHU21623XXSP,2013-07-23 09:37:00,
2013-07-23 02:38:00,52.3,48.2,29.96,South,180,0.0,0.0,86,0.00,,,0.00,WUHU21623XXSP,2013-07-23 09:38:00,
2013-07-23 02:41:00,52.3,48.2,29.96,South,180,0.0,0.0,86,0.00,,,0.00,WUHU21623XXSP,2013-07-23 09:41:00,
2013-07-23 02:42:00,52.3,48.2,29.96,SSE,157,0.0,0.0,86,0.00,,,0.00,WUHU21623XXSP,2013-07-23 09:42:00,
2013-07-23 02:43:00,52.3,48.2,29.96,SSE,157,0.0,0.0,86,0.00,,,0.00,WUHU21623XXSP,2013-07-23 09:43:00,
2013-07-23 02:46:00,52.3,48.2,29.96,SSE,157,0.0,0.0,86,0.00,,,0.00,WUHU21623XXSP,2013-07-23 09:46:00,
2013-07-23 02:47:00,52.3,48.2,29.96,SSE,157,0.0,0.0,86,0.00,,,0.00,WUHU21623XXSP,2013-07-23 09:47:00,
2013-07-23 02:48:00,52.3,48.2,29.96,SSE,157,0.0,0.0,86,0.00,,,0.00,WUHU21623XXSP,2013-07-23 09:48:00,
2013-07-23 02:49:00,52.3,48.2,29.96,SSE,157,0.0,0.0,86,0.00,,,0.00,WUHU21623XXSP,2013-07-23 09:49:00,
2013-07-23 02:51:00,52.3,48.2,29.96,SSE,157,0.0,0.0,86,0.00,,,0.00,WUHU21623XXSP,2013-07-23 09:51:00,
2013-07-23 02:52:00,52.3,48.2,29.96,SSE,157,0.0,0.0,86,0.00,,,0.00,WUHU21623XXSP,2013-07-23 09:52:00,
2013-07-23 02:53:00,52.3,48.2,29.96,SSE,157,0.0,0.0,86,0.00,,,0.00,WUHU21623XXSP,2013-07-23 09:53:00,
2013-07-23 02:54:00,52.3,48.2,29.96,SSE,157,0.0,0.0,86,0.00,,,0.00,WUHU21623XXSP,2013-07-23 09:54:00,
2013-07-23 02:56:00,52.3,48.2,29.96,SSE,157,0.0,0.0,86,0.00,,,0.00,WUHU21623XXSP,2013-07-23 09:56:00,
2013-07-23 02:58:00,52.3,48.2,29.96,SSE,157,0.0,0.0,86,0.00,,,0.00,WUHU21623XXSP,2013-07-23 09:58:00,
2013-07-23 02:59:00,52.3,48.2,29.96,SSE,157,0.0,0.0,86,0.00,,,0.00,WUHU21623XXSP,2013-07-23 09:59:00,
2013-07-23 03:01:00,52.3,48.2,29.96,SSE,157,0.0,0.0,86,0.00,,,0.00,WUHU21623XXSP,2013-07-23 10:01:00,
2013-07-23 03:03:00,52.3,48.2,29.96,SSE,157,0.0,0.0,86,0.00,,,0.00,WUHU21623XXSP,2013-07-23 10:03:00,
2013-07-23 03:05:00,52.3,48.2,29.96,SSE,157,0.0,0.0,86,0.00,,,0.00,WUHU21623XXSP,2013-07-23 10:05:00,
2013-07-23 03:06:00,52.3,48.2,29.96,SSE,157,0.0,0.0,86,0.00,,,0.00,WUHU21623XXSP,2013-07-23 10:06:00,
2013-07-23 03:07:00,52.3,48.2,29.96,South,180,0.0,0.0,86,0.00,,,0.00,WUHU21623XXSP,2013-07-23 10:07:00,
2013-07-23 03:08:00,52.3,48.2,29.96,South,180,0.0,0.0,86,0.00,,,0.00,WUHU21623XXSP,2013-07-23 10:08:00,
2013-07-23 03:09:00,52.3,48.2,29.96,South,180,0.0,0.0,86,0.00,,,0.00,WUHU21623XXSP,2013-07-23 10:09:00,
2013-07-23 03:10:00,52.3,48.2,29.96,South,180,0.0,0.0,86,0.00,,,0.00,WUHU21623XXSP,2013-07-23 10:10:00,
2013-07-23 03:12:00,52.3,48.2,29.96,South,180,0.0,0.0,86,0.00,,,0.00,WUHU21623XXSP,2013-07-23 10:12:00,
2013-07-23 03:14:00,52.3,48.2,29.96,South,180,0.0,0.0,86,0.00,,,0.00,WUHU21623XXSP,2013-07-23 10:14:00,
2013-07-23 03:15:00,52.3,48.2,29.96,South,180,0.0,0.0,86,0.00,,,0.00,WUHU21623XXSP,2013-07-23 10:15:00,
2013-07-23 03:17:00,52.3,48.2,29.96,South,180,0.0,0.0,86,0.00,,,0.00,WUHU21623XXSP,2013-07-23 10:17:00,
2013-07-23 03:24:00,52.3,48.2,29.96,South,180,0.0,0.0,86,0.00,,,0.00,WUHU21623XXSP,2013-07-23 10:24:00,
2013-07-23 03:25:00,52.3,48.2,29.96,South,180,0.0,0.0,86,0.00,,,0.00,WUHU21623XXSP,2013-07-23 10:25:00,
2013-07-23 03:29:00,52.3,48.2,29.96,South,180,0.0,0.0,86,0.00,,,0.00,WUHU21623XXSP,2013-07-23 10:29:00,
2013-07-23 03:30:00,52.3,48.2,29.96,South,180,0.0,0.0,86,0.00,,,0.00,WUHU21623XXSP,2013-07-23 10:30:00,
2013-07-23 03:34:00,52.3,48.2,29.96,South,180,0.0,0.0,86,0.00,,,0.00,WUHU21623XXSP,2013-07-23 10:34:00,
2013-07-23 03:35:00,52.3,48.2,29.96,South,180,0.0,0.0,86,0.00,,,0.00,WUHU21623XXSP,2013-07-23 10:35:00,
2013-07-23 03:39:00,52.3,48.2,29.96,South,180,0.0,0.0,86,0.00,,,0.00,WUHU21623XXSP,2013-07-23 10:39:00,
2013-07-23 03:40:00,52.3,48.2,29.96,South,180,0.0,0.0,86,0.00,,,0.00,WUHU21623XXSP,2013-07-23 10:40:00,
2013-07-23 03:44:00,52.3,48.2,29.96,South,180,0.0,0.0,86,0.00,,,0.00,WUHU21623XXSP,2013-07-23 10:44:00,
2013-07-23 03:45:00,52.3,48.2,29.96,South,180,0.0,0.0,86,0.00,,,0.00,WUHU21623XXSP,2013-07-23 10:45:00,
2013-07-23 03:49:00,52.3,48.2,29.96,South,180,0.0,0.0,86,0.00,,,0.00,WUHU21623XXSP,2013-07-23 10:49:00,
2013-07-23 03:50:00,52.3,48.2,29.96,South,180,0.0,0.0,86,0.00,,,0.00,WUHU21623XXSP,2013-07-23 10:50:00,
2013-07-23 03:55:00,52.3,48.2,29.96,South,180,0.0,0.0,86,0.00,,,0.00,WUHU21623XXSP,2013-07-23 10:55:00,
2013-07-23 04:00:00,52.3,48.2,29.96,South,180,0.0,0.0,86,0.00,,,0.00,WUHU21623XXSP,2013-07-23 11:00:00,
2013-07-23 04:01:00,52.3,48.2,29.96,South,180,0.0,0.0,86,0.00,,,0.00,WUHU21623XXSP,2013-07-23 11:01:00,
2013-07-23 04:05:00,52.2,48.1,29.96,West,270,0.0,0.0,86,0.00,,,0.00,WUHU21623XXSP,2013-07-23 11:05:00,
2013-07-23 04:06:00,52.2,48.1,29.96,West,270,0.0,0.0,86,0.00,,,0.00,WUHU21623XXSP,2013-07-23 11:06:00,
2013-07-23 04:10:00,52.2,48.1,29.96,WSW,247,0.0,0.0,86,0.00,,,0.00,WUHU21623XXSP,2013-07-23 11:10:00,
2013-07-23 04:11:00,52.2,48.1,29.96,WSW,247,0.0,0.0,86,0.00,,,0.00,WUHU21623XXSP,2013-07-23 11:11:00,
2013-07-23 04:15:00,52.0,47.9,29.96,WSW,247,0.0,0.0,86,0.00,,,0.00,WUHU21623XXSP,2013-07-23 11:15:00,
2013-07-23 04:16:00,51.8,47.9,29.96,WSW,247,0.0,0.0,86,0.00,,,0.00,WUHU21623XXSP,2013-07-23 11:16:00,
2013-07-23 04:20:00,51.8,47.7,29.96,WSW,247,0.0,0.0,86,0.00,,,0.00,WUHU21623XXSP,2013-07-23 11:20:00,
2013-07-23 04:21:00,51.8,47.7,29.96,WSW,247,0.0,0.0,86,0.00,,,0.00,WUHU21623XXSP,2013-07-23 11:21:00,
2013-07-23 04:25:00,51.6,47.7,29.96,WSW,247,0.0,0.0,86,0.00,,,0.00,WUHU21623XXSP,2013-07-23 11:25:00,
2013-07-23 04:26:00,51.6,47.7,29.96,WSW,247,0.0,0.0,86,0.00,,,0.00,WUHU21623XXSP,2013-07-23 11:26:00,
2013-07-23 04:28:00,51.6,47.5,29.96,WNW,292,0.0,0.0,86,0.00,,,0.00,WUHU21623XXSP,2013-07-23 11:28:00,
2013-07-23 04:29:00,51.6,47.5,29.96,WNW,292,0.0,0.0,86,0.00,,,0.00,WUHU21623XXSP,2013-07-23 11:29:00,
2013-07-23 04:31:00,51.6,47.5,29.96,WNW,292,0.0,0.0,86,0.00,,,0.00,WUHU21623XXSP,2013-07-23 11:31:00,
2013-07-23 04:34:00,51.6,47.5,29.96,WNW,292,0.0,0.0,86,0.00,,,0.00,WUHU21623XXSP,2013-07-23 11:34:00,
2013-07-23 04:36:00,51.6,47.5,29.96,WNW,292,0.0,0.0,86,0.00,,,0.00,WUHU21623XXSP,2013-07-23 11:36:00,
2013-07-23 04:39:00,51.6,47.5,29.96,West,270,0.0,0.0,86,0.00,,,0.00,WUHU21623XXSP,2013-07-23 11:39:00,
2013-07-23 04:40:00,51.4,47.3,29.96,West,270,0.0,0.0,86,0.00,,,0.00,WUHU21623XXSP,2013-07-23 11:40:00,
2013-07-23 04:41:00,51.4,47.3,29.96,West,270,0.0,0.0,86,0.00,,,0.00,WUHU21623XXSP,2013-07-23 11:41:00,
2013-07-23 04:44:00,51.4,47.3,29.96,West,270,0.0,0.0,86,0.00,,,0.00,WUHU21623XXSP,2013-07-23 11:44:00,
2013-07-23 04:45:00,51.4,47.3,29.96,West,270,0.0,0.0,86,0.00,,,0.00,WUHU21623XXSP,2013-07-23 11:45:00,
2013-07-23 04:46:00,51.4,47.6,29.96,West,270,0.0,0.0,87,0.00,,,0.00,WUHU21623XXSP,2013-07-23 11:46:00,
2013-07-23 04:49:00,51.4,47.6,29.96,West,270,0.0,0.0,87,0.00,,,0.00,WUHU21623XXSP,2013-07-23 11:49:00,
2013-07-23 04:50:00,51.4,47.6,29.96,WSW,247,0.0,0.0,87,0.00,,,0.00,WUHU21623XXSP,2013-07-23 11:50:00,
2013-07-23 04:51:00,51.4,47.6,29.96,WSW,247,0.0,0.0,87,0.00,,,0.00,WUHU21623XXSP,2013-07-23 11:51:00,
2013-07-23 04:54:00,51.4,47.6,29.96,WSW,247,0.0,0.0,87,0.00,,,0.00,WUHU21623XXSP,2013-07-23 11:54:00,
2013-07-23 04:55:00,51.4,47.6,29.96,WSW,247,0.0,0.0,87,0.00,,,0.00,WUHU21623XXSP,2013-07-23 11:55:00,
2013-07-23 04:56:00,51.4,47.6,29.96,WSW,247,0.0,0.0,87,0.00,,,0.00,WUHU21623XXSP,2013-07-23 11:56:00,
2013-07-23 04:57:00,51.4,47.6,29.96,WSW,247,0.0,0.0,87,0.00,,,0.00,WUHU21623XXSP,2013-07-23 11:57:00,
2013-07-23 04:59:00,51.4,47.6,29.96,WSW,247,0.0,0.0,87,0.00,,,0.00,WUHU21623XXSP,2013-07-23 11:59:00,
2013-07-23 05:00:00,51.4,47.6,29.96,WSW,247,0.0,0.0,87,0.00,,,0.00,WUHU21623XXSP,2013-07-23 12:00:00,
2013-07-23 05:02:00,51.4,47.6,29.96,WSW,247,0.0,0.0,87,0.00,,,0.00,WUHU21623XXSP,2013-07-23 12:02:00,
2013-07-23 05:04:00,51.4,47.6,29.96,WSW,247,0.0,0.0,87,0.00,,,0.00,WUHU21623XXSP,2013-07-23 12:04:00,
2013-07-23 05:05:00,51.4,47.6,29.96,WSW,247,0.0,0.0,87,0.00,,,0.00,WUHU21623XXSP,2013-07-23 12:05:00,
2013-07-23 05:06:00,51.4,47.6,29.96,WSW,247,0.0,0.0,87,0.00,,,0.00,WUHU21623XXSP,2013-07-23 12:06:00,
2013-07-23 05:07:00,51.4,47.6,29.96,WSW,247,0.0,0.0,87,0.00,,,0.00,WUHU21623XXSP,2013-07-23 12:07:00,
2013-07-23 05:09:00,51.4,47.6,29.96,WSW,247,0.0,0.0,87,0.00,,,0.00,WUHU21623XXSP,2013-07-23 12:09:00,
2013-07-23 05:11:00,51.4,47.6,29.96,WSW,247,0.0,0.0,87,0.00,,,0.00,WUHU21623XXSP,2013-07-23 12:11:00,
2013-07-23 05:12:00,51.4,47.6,29.96,WSW,247,0.0,0.0,87,0.00,,,0.00,WUHU21623XXSP,2013-07-23 12:12:00,
2013-07-23 05:13:00,51.4,47.6,29.96,WSW,247,0.0,0.0,87,0.00,,,0.00,WUHU21623XXSP,2013-07-23 12:13:00,
2013-07-23 05:14:00,51.4,47.6,29.96,WSW,247,0.0,0.0,87,0.00,,,0.00,WUHU21623XXSP,2013-07-23 12:14:00,
2013-07-23 05:16:00,51.4,47.6,29.96,WSW,247,0.0,0.0,87,0.00,,,0.00,WUHU21623XXSP,2013-07-23 12:16:00,
2013-07-23 05:17:00,51.4,47.6,29.96,WSW,247,0.0,0.0,87,0.00,,,0.00,WUHU21623XXSP,2013-07-23 12:17:00,
2013-07-23 05:18:00,51.4,47.6,29.96,WSW,247,0.0,0.0,87,0.00,,,0.00,WUHU21623XXSP,2013-07-23 12:18:00,
2013-07-23 05:19:00,51.4,47.6,29.96,WSW,247,0.0,0.0,87,0.00,,,0.00,WUHU21623XXSP,2013-07-23 12:19:00,
2013-07-23 05:21:00,51.4,47.6,29.96,WSW,247,0.0,0.0,87,0.00,,,0.00,WUHU21623XXSP,2013-07-23 12:21:00,
2013-07-23 05:24:00,51.4,47.6,29.96,WSW,247,0.0,0.0,87,0.00,,,0.00,WUHU21623XXSP,2013-07-23 12:24:00,
2013-07-23 05:25:00,51.4,47.6,29.96,WSW,247,0.0,0.0,87,0.00,,,0.00,WUHU21623XXSP,2013-07-23 12:25:00,
2013-07-23 05:26:00,51.4,47.6,29.96,WSW,247,0.0,0.0,87,0.00,,,0.00,WUHU21623XXSP,2013-07-23 12:26:00,
2013-07-23 05:29:00,51.4,47.6,29.96,WSW,247,0.0,0.0,87,0.00,,,0.00,WUHU21623XXSP,2013-07-23 12:29:00,
2013-07-23 05:30:00,51.4,47.6,29.96,WSW,247,0.0,0.0,87,0.00,,,0.00,WUHU21623XXSP,2013-07-23 12:30:00,
2013-07-23 05:32:00,51.4,47.6,29.96,WSW,247,0.0,0.0,87,0.00,,,0.00,WUHU21623XXSP,2013-07-23 12:32:00,
2013-07-23 05:34:00,51.4,47.6,29.96,WSW,247,0.0,0.0,87,0.00,,,0.00,WUHU21623XXSP,2013-07-23 12:34:00,
2013-07-23 05:35:00,51.4,47.6,29.96,WSW,247,0.0,0.0,87,0.00,,,0.00,WUHU21623XXSP,2013-07-23 12:35:00,
2013-07-23 05:36:00,51.4,47.6,29.96,WSW,247,0.0,0.0,87,0.00,,,0.00,WUHU21623XXSP,2013-07-23 12:36:00,
2013-07-23 05:37:00,51.4,47.6,29.96,WSW,247,0.0,0.0,87,0.00,,,0.00,WUHU21623XXSP,2013-07-23 12:37:00,
2013-07-23 05:39:00,51.4,47.6,29.96,WSW,247,0.0,0.0,87,0.00,,,0.00,WUHU21623XXSP,2013-07-23 12:39:00,
2013-07-23 05:40:00,51.4,47.6,29.96,WSW,247,0.0,0.0,87,0.00,,,0.00,WUHU21623XXSP,2013-07-23 12:40:00,
2013-07-23 05:41:00,51.4,47.6,29.96,WSW,247,0.0,0.0,87,0.00,,,0.00,WUHU21623XXSP,2013-07-23 12:41:00,
2013-07-23 05:42:00,51.4,47.6,29.96,WSW,247,0.0,0.0,87,0.00,,,0.00,WUHU21623XXSP,2013-07-23 12:42:00,
2013-07-23 05:44:00,51.4,47.6,29.96,WSW,247,0.0,0.0,87,0.00,,,0.00,WUHU21623XXSP,2013-07-23 12:44:00,
2013-07-23 05:45:00,51.4,47.6,29.96,WSW,247,0.0,0.0,87,0.00,,,0.00,WUHU21623XXSP,2013-07-23 12:45:00,
2013-07-23 05:46:00,51.4,47.6,29.96,WSW,247,0.0,0.0,87,0.00,,,0.00,WUHU21623XXSP,2013-07-23 12:46:00,
2013-07-23 05:47:00,51.4,47.6,29.96,WSW,247,0.0,0.0,87,0.00,,,0.00,WUHU21623XXSP,2013-07-23 12:47:00,
2013-07-23 05:49:00,51.4,47.6,29.96,WSW,247,0.0,0.0,87,0.00,,,0.00,WUHU21623XXSP,2013-07-23 12:49:00,
2013-07-23 05:50:00,51.4,47.6,29.96,WSW,247,0.0,0.0,87,0.00,,,0.00,WUHU21623XXSP,2013-07-23 12:50:00,
2013-07-23 05:51:00,51.4,47.6,29.96,WSW,247,0.0,0.0,87,0.00,,,0.00,WUHU21623XXSP,2013-07-23 12:51:00,
2013-07-23 05:52:00,51.4,47.6,29.96,WSW,247,0.0,0.0,87,0.00,,,0.00,WUHU21623XXSP,2013-07-23 12:52:00,
2013-07-23 05:54:00,51.4,47.6,29.96,WSW,247,0.0,0.0,87,0.00,,,0.00,WUHU21623XXSP,2013-07-23 12:54:00,
2013-07-23 05:55:00,51.4,47.6,29.96,WSW,247,0.0,0.0,87,0.00,,,0.00,WUHU21623XXSP,2013-07-23 12:55:00,
2013-07-23 05:56:00,51.4,47.6,29.96,WSW,247,0.0,0.0,87,0.00,,,0.00,WUHU21623XXSP,2013-07-23 12:56:00,
2013-07-23 05:57:00,51.1,47.3,29.96,WSW,247,0.0,0.0,87,0.00,,,0.00,WUHU21623XXSP,2013-07-23 12:57:00,
2013-07-23 06:00:00,51.1,47.3,29.96,WSW,247,0.0,0.0,87,0.00,,,0.00,WUHU21623XXSP,2013-07-23 13:00:00,
2013-07-23 06:01:00,51.1,47.3,29.96,WSW,247,0.0,0.0,87,0.00,,,0.00,WUHU21623XXSP,2013-07-23 13:01:00,
2013-07-23 06:03:00,51.1,47.3,29.96,West,270,0.0,0.0,87,0.00,,,0.00,WUHU21623XXSP,2013-07-23 13:03:00,
2013-07-23 06:06:00,51.1,47.3,29.96,West,270,0.0,0.0,87,0.00,,,0.00,WUHU21623XXSP,2013-07-23 13:06:00,
2013-07-23 06:08:00,51.1,47.3,29.96,West,270,0.0,0.0,87,0.00,,,0.00,WUHU21623XXSP,2013-07-23 13:08:00,
2013-07-23 06:11:00,51.1,47.3,29.96,West,270,0.0,0.0,87,0.00,,,0.00,WUHU21623XXSP,2013-07-23 13:11:00,
2013-07-23 06:12:00,51.1,47.3,29.96,West,270,0.0,0.0,87,0.00,,,0.00,WUHU21623XXSP,2013-07-23 13:12:00,
2013-07-23 06:13:00,51.1,47.3,29.96,West,270,0.0,0.0,87,0.00,,,0.00,WUHU21623XXSP,2013-07-23 13:13:00,
2013-07-23 06:16:00,51.1,47.3,29.96,West,270,0.0,0.0,87,0.00,,,0.00,WUHU21623XXSP,2013-07-23 13:16:00,
2013-07-23 06:17:00,51.1,47.3,29.96,West,270,0.0,0.0,87,0.00,,,0.00,WUHU21623XXSP,2013-07-23 13:17:00,
2013-07-23 06:18:00,51.1,47.3,29.96,West,270,0.0,0.0,87,0.00,,,0.00,WUHU21623XXSP,2013-07-23 13:18:00,
2013-07-23 06:24:00,51.1,47.3,29.96,West,270,0.0,0.0,87,0.00,,,0.00,WUHU21623XXSP,2013-07-23 13:24:00,
2013-07-23 06:29:00,51.1,47.3,29.96,West,270,0.0,0.0,87,0.00,,,0.00,WUHU21623XXSP,2013-07-23 13:29:00,
2013-07-23 06:30:00,51.1,47.3,29.96,West,270,0.0,0.0,87,0.00,,,0.00,WUHU21623XXSP,2013-07-23 13:30:00,
2013-07-23 06:34:00,51.1,47.3,29.96,West,270,0.0,0.0,87,0.00,,,0.00,WUHU21623XXSP,2013-07-23 13:34:00,
2013-07-23 06:35:00,51.1,47.3,29.96,West,270,0.0,0.0,87,0.00,,,0.00,WUHU21623XXSP,2013-07-23 13:35:00,
2013-07-23 06:39:00,51.3,47.5,29.97,West,270,0.0,0.0,87,0.00,,,0.00,WUHU21623XXSP,2013-07-23 13:39:00,
2013-07-23 06:40:00,51.3,47.5,29.97,West,270,0.0,0.0,87,0.00,,,0.00,WUHU21623XXSP,2013-07-23 13:40:00,
2013-07-23 06:41:00,51.3,47.5,29.97,West,270,0.0,0.0,87,0.00,,,0.00,WUHU21623XXSP,2013-07-23 13:41:00,
2013-07-23 06:44:00,51.3,47.5,29.97,West,270,0.0,0.0,87,0.00,,,0.00,WUHU21623XXSP,2013-07-23 13:44:00,
2013-07-23 06:45:00,51.3,47.5,29.97,West,270,0.0,0.0,87,0.00,,,0.00,WUHU21623XXSP,2013-07-23 13:45:00,
2013-07-23 06:55:00,51.3,47.8,29.97,ESE,112,0.0,0.0,88,0.00,,,0.00,WUHU21623XXSP,2013-07-23 13:55:00,
2013-07-23 06:56:00,51.3,47.8,29.97,ESE,112,0.0,0.0,88,0.00,,,0.00,WUHU21623XXSP,2013-07-23 13:56:00,
2013-07-23 07:00:00,51.3,47.9,29.97,ESE,112,0.0,0.0,88,0.00,,,0.00,WUHU21623XXSP,2013-07-23 14:00:00,
2013-07-23 07:01:00,51.4,47.8,29.97,ESE,112,0.0,0.0,88,0.00,,,0.00,WUHU21623XXSP,2013-07-23 14:01:00,
2013-07-23 07:05:00,51.3,47.8,29.98,ESE,112,0.0,0.0,88,0.00,,,0.00,WUHU21623XXSP,2013-07-23 14:05:00,
2013-07-23 07:06:00,51.3,47.8,29.98,ESE,112,0.0,0.0,88,0.00,,,0.00,WUHU21623XXSP,2013-07-23 14:06:00,
2013-07-23 07:10:00,51.4,47.8,29.98,SSW,202,0.0,0.0,88,0.00,,,0.00,WUHU21623XXSP,2013-07-23 14:10:00,
2013-07-23 07:11:00,51.4,47.8,29.98,SSW,202,0.0,0.0,88,0.00,,,0.00,WUHU21623XXSP,2013-07-23 14:11:00,
2013-07-23 07:16:00,51.6,47.9,29.98,SSW,202,0.0,0.0,88,0.00,,,0.00,WUHU21623XXSP,2013-07-23 14:16:00,
2013-07-23 07:21:00,51.6,48.1,29.97,WSW,247,0.0,0.0,88,0.00,,,0.00,WUHU21623XXSP,2013-07-23 14:21:00,
2013-07-23 07:26:00,51.6,48.1,29.97,WSW,247,0.0,0.0,88,0.00,,,0.00,WUHU21623XXSP,2013-07-23 14:26:00,
2013-07-23 07:27:00,51.6,48.1,29.97,WSW,247,0.0,0.0,88,0.00,,,0.00,WUHU21623XXSP,2013-07-23 14:27:00,
2013-07-23 10:19:00,60.4,54.3,29.98,NW,315,0.0,0.0,80,0.00,,,0.00,WUHU21623XXSP,2013-07-23 17:19:00,
2013-07-23 10:24:00,60.6,54.1,29.98,SSW,202,0.0,0.0,79,0.00,,,0.00,WUHU21623XXSP,2013-07-23 17:24:00,
2013-07-23 10:30:00,61.2,54.6,29.98,SSW,202,0.0,0.0,79,0.00,,,0.00,WUHU21623XXSP,2013-07-23 17:30:00,
2013-07-23 10:35:00,61.7,55.0,29.98,SSW,202,0.0,0.0,78,0.00,,,0.00,WUHU21623XXSP,2013-07-23 17:35:00,
2013-07-23 10:36:00,61.7,55.0,29.98,SSW,202,0.0,0.0,78,0.00,,,0.00,WUHU21623XXSP,2013-07-23 17:36:00,
2013-07-23 10:40:00,61.9,54.6,29.98,SW,225,0.0,1.1,77,0.00,,,0.00,WUHU21623XXSP,2013-07-23 17:40:00,
2013-07-23 10:41:00,61.9,54.6,29.98,SW,225,0.0,1.1,77,0.00,,,0.00,WUHU21623XXSP,2013-07-23 17:41:00,
2013-07-23 10:47:00,62.4,55.1,29.98,WSW,247,2.9,2.9,77,0.00,,,0.00,WUHU21623XXSP,2013-07-23 17:47:00,
2013-07-23 10:48:00,62.4,55.1,29.98,WSW,247,2.9,2.9,77,0.00,,,0.00,WUHU21623XXSP,2013-07-23 17:48:00,
2013-07-23 10:52:00,63.0,55.6,29.98,SSW,202,2.7,2.9,77,0.00,,,0.00,WUHU21623XXSP,2013-07-23 17:52:00,
2013-07-23 10:53:00,63.0,55.6,29.98,SSW,202,2.7,2.9,77,0.00,,,0.00,WUHU21623XXSP,2013-07-23 17:53:00,
2013-07-23 10:54:00,63.0,55.6,29.98,SSW,202,2.7,2.9,77,0.00,,,0.00,WUHU21623XXSP,2013-07-23 17:54:00,
2013-07-23 10:57:00,63.5,55.4,29.98,SSW,202,6.0,6.0,75,0.00,,,0.00,WUHU21623XXSP,2013-07-23 17:57:00,
2013-07-23 10:58:00,63.5,55.4,29.98,SSW,202,6.0,6.0,75,0.00,,,0.00,WUHU21623XXSP,2013-07-23 17:58:00,
2013-07-23 11:00:00,63.7,55.6,29.98,WSW,247,3.1,6.0,75,0.00,,,0.00,WUHU21623XXSP,2013-07-23 18:00:00,
2013-07-23 11:06:00,64.8,56.3,29.98,WSW,247,2.5,3.1,74,0.00,,,0.00,WUHU21623XXSP,2013-07-23 18:06:00,
2013-07-23 11:07:00,64.8,56.3,29.98,WSW,247,2.5,3.1,74,0.00,,,0.00,WUHU21623XXSP,2013-07-23 18:07:00,
2013-07-23 11:12:00,65.1,56.6,29.98,NW,315,0.0,2.5,74,0.00,,,0.00,WUHU21623XXSP,2013-07-23 18:12:00,
2013-07-23 11:13:00,65.1,56.6,29.98,NW,315,0.0,2.5,74,0.00,,,0.00,WUHU21623XXSP,2013-07-23 18:13:00,
2013-07-23 11:17:00,65.7,56.4,29.98,WSW,247,4.0,4.0,72,0.00,,,0.00,WUHU21623XXSP,2013-07-23 18:17:00,
2013-07-23 11:18:00,65.7,56.4,29.98,WSW,247,4.0,4.0,72,0.00,,,0.00,WUHU21623XXSP,2013-07-23 18:18:00,
2013-07-23 11:23:00,66.4,57.1,29.98,SW,225,4.9,4.9,72,0.00,,,0.00,WUHU21623XXSP,2013-07-23 18:23:00,
2013-07-23 11:24:00,66.9,57.4,29.98,WSW,247,6.9,6.9,72,0.00,,,0.00,WUHU21623XXSP,2013-07-23 18:24:00,
2013-07-23 11:29:00,67.3,57.2,29.98,WNW,292,1.8,6.9,70,0.00,,,0.00,WUHU21623XXSP,2013-07-23 18:29:00,
2013-07-23 11:30:00,67.3,57.2,29.98,WNW,292,1.8,6.9,70,0.00,,,0.00,WUHU21623XXSP,2013-07-23 18:30:00,
2013-07-23 11:35:00,68.2,57.3,29.98,SW,225,4.3,4.3,69,0.00,,,0.00,WUHU21623XXSP,2013-07-23 18:35:00,
2013-07-23 11:40:00,68.2,57.2,29.98,WSW,247,2.5,4.3,68,0.00,,,0.00,WUHU21623XXSP,2013-07-23 18:40:00,
2013-07-23 11:41:00,68.2,57.2,29.98,WSW,247,2.5,4.3,68,0.00,,,0.00,WUHU21623XXSP,2013-07-23 18:41:00,
2013-07-23 11:45:00,68.9,57.3,29.98,WNW,292,1.8,4.5,66,0.00,,,0.00,WUHU21623XXSP,2013-07-23 18:45:00,
2013-07-23 11:46:00,68.9,57.3,29.98,WNW,292,1.8,4.5,66,0.00,,,0.00,WUHU21623XXSP,2013-07-23 18:46:00,
2013-07-23 11:51:00,69.1,57.2,29.98,WNW,292,2.5,4.5,66,0.00,,,0.00,WUHU21623XXSP,2013-07-23 18:51:00,
2013-07-23 11:52:00,69.4,57.4,29.98,South,180,0.0,4.5,65,0.00,,,0.00,WUHU21623XXSP,2013-07-23 18:52:00,
2013-07-23 11:54:00,69.4,57.4,29.98,South,180,0.0,2.5,65,0.00,,,0.00,WUHU21623XXSP,2013-07-23 18:54:00,
2013-07-23 11:56:00,69.6,57.3,29.97,WSW,247,1.1,2.5,65,0.00,,,0.00,WUHU21623XXSP,2013-07-23 18:56:00,
2013-07-23 11:57:00,69.6,57.3,29.97,WSW,247,1.1,2.5,65,0.00,,,0.00,WUHU21623XXSP,2013-07-23 18:57:00,
2013-07-23 11:59:00,69.6,57.3,29.97,WSW,247,1.1,1.1,65,0.00,,,0.00,WUHU21623XXSP,2013-07-23 18:59:00,
2013-07-23 12:02:00,69.6,57.3,29.97,West,270,0.4,1.1,65,0.00,,,0.00,WUHU21623XXSP,2013-07-23 19:02:00,
2013-07-23 12:03:00,69.6,57.3,29.97,West,270,0.4,1.1,65,0.00,,,0.00,WUHU21623XXSP,2013-07-23 19:03:00,
2013-07-23 12:05:00,69.6,57.3,29.97,West,270,0.4,1.1,65,0.00,,,0.00,WUHU21623XXSP,2013-07-23 19:05:00,
2013-07-23 12:08:00,69.8,57.1,29.97,West,270,0.0,0.4,64,0.00,,,0.00,WUHU21623XXSP,2013-07-23 19:08:00,
2013-07-23 12:10:00,69.8,57.1,29.97,WSW,247,0.0,0.4,64,0.00,,,0.00,WUHU21623XXSP,2013-07-23 19:10:00,
2013-07-23 12:13:00,69.8,56.6,29.97,West,270,0.0,0.0,63,0.00,,,0.00,WUHU21623XXSP,2013-07-23 19:13:00,
2013-07-23 12:14:00,69.8,56.6,29.97,West,270,0.0,0.0,63,0.00,,,0.00,WUHU21623XXSP,2013-07-23 19:14:00,
2013-07-23 12:15:00,69.8,56.6,29.97,West,270,0.0,0.0,63,0.00,,,0.00,WUHU21623XXSP,2013-07-23 19:15:00,
2013-07-23 12:19:00,70.0,56.8,29.97,ENE,67,0.0,0.0,63,0.00,,,0.00,WUHU21623XXSP,2013-07-23 19:19:00,
2013-07-23 12:20:00,70.0,56.8,29.97,ENE,67,0.0,0.0,63,0.00,,,0.00,WUHU21623XXSP,2013-07-23 19:20:00,
2013-07-23 12:24:00,69.8,56.6,29.97,WSW,247,6.3,6.3,63,0.00,,,0.00,WUHU21623XXSP,2013-07-23 19:24:00,
2013-07-23 12:25:00,69.8,56.6,29.97,WSW,247,6.3,6.3,63,0.00,,,0.00,WUHU21623XXSP,2013-07-23 19:25:00,
2013-07-23 12:30:00,70.0,56.4,29.97,SW,225,0.0,6.3,62,0.00,,,0.00,WUHU21623XXSP,2013-07-23 19:30:00,
2013-07-23 12:31:00,70.0,56.4,29.97,SW,225,0.0,6.3,62,0.00,,,0.00,WUHU21623XXSP,2013-07-23 19:31:00,
2013-07-23 12:35:00,70.0,56.8,29.97,WNW,292,0.0,0.0,63,0.00,,,0.00,WUHU21623XXSP,2013-07-23 19:35:00,
2013-07-23 12:36:00,70.0,56.8,29.97,WNW,292,0.0,0.0,63,0.00,,,0.00,WUHU21623XXSP,2013-07-23 19:36:00,
2013-07-23 12:37:00,70.2,57.0,29.97,WNW,292,0.0,0.0,62,0.00,,,0.00,WUHU21623XXSP,2013-07-23 19:37:00,
2013-07-23 12:40:00,70.2,57.0,29.97,WNW,292,0.0,0.0,62,0.00,,,0.00,WUHU21623XXSP,2013-07-23 19:40:00,
2013-07-23 12:41:00,70.2,56.6,29.97,North,0,0.0,0.0,62,0.00,,,0.00,WUHU21623XXSP,2013-07-23 19:41:00,
2013-07-23 12:42:00,70.2,56.6,29.97,North,0,0.0,0.0,62,0.00,,,0.00,WUHU21623XXSP,2013-07-23 19:42:00,
2013-07-23 12:45:00,70.5,56.7,29.97,NW,315,0.0,0.0,62,0.00,,,0.00,WUHU21623XXSP,2013-07-23 19:45:00,
2013-07-23 12:46:00,70.5,56.7,29.97,NW,315,0.0,0.0,62,0.00,,,0.00,WUHU21623XXSP,2013-07-23 19:46:00,
2013-07-23 12:47:00,70.5,56.5,29.96,West,270,0.0,0.0,61,0.00,,,0.00,WUHU21623XXSP,2013-07-23 19:47:00,
2013-07-23 12:50:00,70.5,56.5,29.96,West,270,0.0,0.0,61,0.00,,,0.00,WUHU21623XXSP,2013-07-23 19:50:00,
2013-07-23 12:51:00,70.5,56.5,29.96,SW,225,0.0,0.0,61,0.00,,,0.00,WUHU21623XXSP,2013-07-23 19:51:00,
2013-07-23 12:52:00,70.5,56.5,29.96,SW,225,0.0,0.0,61,0.00,,,0.00,WUHU21623XXSP,2013-07-23 19:52:00,
2013-07-23 12:57:00,70.7,56.6,29.96,NNW,337,0.0,0.0,61,0.00,,,0.00,WUHU21623XXSP,2013-07-23 19:57:00,
2013-07-23 12:58:00,70.7,56.6,29.96,NNW,337,0.0,0.0,61,0.00,,,0.00,WUHU21623XXSP,2013-07-23 19:58:00,
2013-07-23 13:03:00,70.5,56.0,29.96,North,0,0.0,0.0,60,0.00,,,0.00,WUHU21623XXSP,2013-07-23 20:03:00,
2013-07-23 13:04:00,70.5,56.0,29.96,North,0,0.0,0.0,60,0.00,,,0.00,WUHU21623XXSP,2013-07-23 20:04:00,
2013-07-23 13:08:00,70.3,55.9,29.96,NW,315,5.6,5.6,60,0.00,,,0.00,WUHU21623XXSP,2013-07-23 20:08:00,
2013-07-23 13:09:00,70.3,55.9,29.96,NW,315,5.6,5.6,60,0.00,,,0.00,WUHU21623XXSP,2013-07-23 20:09:00,
2013-07-23 13:10:00,70.3,55.9,29.96,NW,315,5.6,5.6,60,0.00,,,0.00,WUHU21623XXSP,2013-07-23 20:10:00,
2013-07-23 13:14:00,70.2,55.7,29.96,West,270,7.2,7.2,60,0.00,,,0.00,WUHU21623XXSP,2013-07-23 20:14:00,
2013-07-23 13:15:00,70.2,55.7,29.96,West,270,7.2,7.2,60,0.00,,,0.00,WUHU21623XXSP,2013-07-23 20:15:00,
2013-07-23 13:16:00,70.2,55.7,29.96,West,270,7.2,7.2,60,0.00,,,0.00,WUHU21623XXSP,2013-07-23 20:16:00,
2013-07-23 13:19:00,70.2,55.7,29.96,WSW,247,2.2,7.2,60,0.00,,,0.00,WUHU21623XXSP,2013-07-23 20:19:00,
2013-07-23 13:20:00,70.2,55.7,29.96,WSW,247,2.2,7.2,60,0.00,,,0.00,WUHU21623XXSP,2013-07-23 20:20:00,
2013-07-23 13:21:00,70.2,55.7,29.96,WSW,247,2.2,7.2,60,0.00,,,0.00,WUHU21623XXSP,2013-07-23 20:21:00,
2013-07-23 13:25:00,70.3,55.9,29.96,West,270,5.4,5.4,60,0.00,,,0.00,WUHU21623XXSP,2013-07-23 20:25:00,
2013-07-23 13:26:00,70.7,56.0,29.96,South,180,0.0,5.4,60,0.00,,,0.00,WUHU21623XXSP,2013-07-23 20:26:00,
2013-07-23 13:30:00,70.7,56.2,29.96,South,180,0.0,5.4,60,0.00,,,0.00,WUHU21623XXSP,2013-07-23 20:30:00,
2013-07-23 13:31:00,70.7,56.2,29.96,South,180,0.0,5.4,60,0.00,,,0.00,WUHU21623XXSP,2013-07-23 20:31:00,
2013-07-23 13:32:00,70.9,56.4,29.96,NNW,337,0.0,5.4,60,0.00,,,0.00,WUHU21623XXSP,2013-07-23 20:32:00,
2013-07-23 13:34:00,71.1,56.4,29.96,NNE,22,0.0,0.0,60,0.00,,,0.00,WUHU21623XXSP,2013-07-23 20:34:00,
2013-07-23 13:36:00,71.1,56.4,29.96,NNE,22,0.0,0.0,60,0.00,,,0.00,WUHU21623XXSP,2013-07-23 20:36:00,
2013-07-23 13:37:00,71.1,56.4,29.96,NNE,22,0.0,0.0,60,0.00,,,0.00,WUHU21623XXSP,2013-07-23 20:37:00,
2013-07-23 13:41:00,70.9,55.9,29.96,North,0,0.0,0.0,59,0.00,,,0.00,WUHU21623XXSP,2013-07-23 20:41:00,
2013-07-23 13:42:00,70.9,55.9,29.96,North,0,0.0,0.0,59,0.00,,,0.00,WUHU21623XXSP,2013-07-23 20:42:00,
2013-07-23 13:44:00,70.9,55.9,29.96,North,0,0.0,0.0,59,0.00,,,0.00,WUHU21623XXSP,2013-07-23 20:44:00,
2013-07-23 13:46:00,70.7,55.2,29.96,NE,45,0.7,0.7,58,0.00,,,0.00,WUHU21623XXSP,2013-07-23 20:46:00,
2013-07-23 13:47:00,70.7,55.2,29.96,NE,45,0.7,0.7,58,0.00,,,0.00,WUHU21623XXSP,2013-07-23 20:47:00,
2013-07-23 13:49:00,70.5,55.5,29.96,West,270,4.7,4.7,59,0.00,,,0.00,WUHU21623XXSP,2013-07-23 20:49:00,
2013-07-23 13:51:00,70.5,55.5,29.96,West,270,4.7,4.7,59,0.00,,,0.00,WUHU21623XXSP,2013-07-23 20:51:00,
2013-07-23 13:53:00,70.5,55.5,29.96,West,270,4.7,4.7,59,0.00,,,0.00,WUHU21623XXSP,2013-07-23 20:53:00,
2013-07-23 13:56:00,70.5,55.5,29.95,West,270,6.9,6.9,59,0.00,,,0.00,WUHU21623XXSP,2013-07-23 20:56:00,
2013-07-23 13:57:00,70.5,55.5,29.95,West,270,6.9,6.9,59,0.00,,,0.00,WUHU21623XXSP,2013-07-23 20:57:00,
2013-07-23 13:58:00,70.5,55.5,29.95,West,270,6.9,6.9,59,0.00,,,0.00,WUHU21623XXSP,2013-07-23 20:58:00,
2013-07-23 14:02:00,70.7,55.7,29.95,WNW,292,7.2,7.2,59,0.00,,,0.00,WUHU21623XXSP,2013-07-23 21:02:00,
2013-07-23 14:03:00,70.7,55.7,29.95,WNW,292,7.2,7.2,59,0.00,,,0.00,WUHU21623XXSP,2013-07-23 21:03:00,
2013-07-23 14:04:00,70.7,55.7,29.95,WNW,292,7.2,7.2,59,0.00,,,0.00,WUHU21623XXSP,2013-07-23 21:04:00,
2013-07-23 14:07:00,70.5,55.5,29.95,West,270,0.0,7.2,59,0.00,,,0.00,WUHU21623XXSP,2013-07-23 21:07:00,
2013-07-23 14:08:00,70.5,55.5,29.95,West,270,0.0,7.2,59,0.00,,,0.00,WUHU21623XXSP,2013-07-23 21:08:00,
2013-07-23 14:10:00,70.3,54.9,29.95,North,0,6.5,7.2,58,0.00,,,0.00,WUHU21623XXSP,2013-07-23 21:10:00,
2013-07-23 14:12:00,70.3,54.9,29.95,North,0,6.5,7.2,58,0.00,,,0.00,WUHU21623XXSP,2013-07-23 21:12:00,
2013-07-23 14:13:00,70.3,54.9,29.95,North,0,6.5,6.5,58,0.00,,,0.00,WUHU21623XXSP,2013-07-23 21:13:00,
2013-07-23 14:15:00,70.2,54.7,29.95,WNW,292,1.8,6.5,58,0.00,,,0.00,WUHU21623XXSP,2013-07-23 21:15:00,
2013-07-23 14:16:00,70.2,54.7,29.95,WNW,292,1.8,6.5,58,0.00,,,0.00,WUHU21623XXSP,2013-07-23 21:16:00,
2013-07-23 14:17:00,70.2,55.2,29.95,NNE,22,0.0,6.5,59,0.00,,,0.00,WUHU21623XXSP,2013-07-23 21:17:00,
2013-07-23 14:18:00,70.2,55.2,29.95,NNE,22,0.0,6.5,59,0.00,,,0.00,WUHU21623XXSP,2013-07-23 21:18:00,
2013-07-23 14:21:00,70.2,55.2,29.95,NNE,22,0.0,6.5,59,0.00,,,0.00,WUHU21623XXSP,2013-07-23 21:21:00,
2013-07-23 14:22:00,70.2,55.2,29.95,NNE,22,0.0,1.8,59,0.00,,,0.00,WUHU21623XXSP,2013-07-23 21:22:00,
2013-07-23 14:24:00,70.3,54.9,29.95,NNW,337,0.0,1.8,58,0.00,,,0.00,WUHU21623XXSP,2013-07-23 21:24:00,
2013-07-23 14:26:00,70.3,54.9,29.95,NNW,337,0.0,0.0,58,0.00,,,0.00,WUHU21623XXSP,2013-07-23 21:26:00,
2013-07-23 14:30:00,70.0,54.6,29.95,North,0,0.0,0.0,58,0.00,,,0.00,WUHU21623XXSP,2013-07-23 21:30:00,
2013-07-23 14:31:00,70.0,54.6,29.95,North,0,0.0,0.0,58,0.00,,,0.00,WUHU21623XXSP,2013-07-23 21:31:00,
2013-07-23 14:35:00,69.6,54.2,29.95,West,270,5.4,5.4,58,0.00,,,0.00,WUHU21623XXSP,2013-07-23 21:35:00,
2013-07-23 14:36:00,69.6,54.2,29.95,West,270,5.4,5.4,58,0.00,,,0.00,WUHU21623XXSP,2013-07-23 21:36:00,
2013-07-23 14:40:00,69.4,54.0,29.95,North,0,0.7,5.4,58,0.00,,,0.00,WUHU21623XXSP,2013-07-23 21:40:00,
2013-07-23 14:41:00,69.4,54.0,29.95,North,0,0.7,5.4,58,0.00,,,0.00,WUHU21623XXSP,2013-07-23 21:41:00,
2013-07-23 14:46:00,68.9,54.0,29.95,NNW,337,2.0,2.0,59,0.00,,,0.00,WUHU21623XXSP,2013-07-23 21:46:00,
2013-07-23 14:47:00,68.7,53.8,29.95,West,270,2.0,2.0,59,0.00,,,0.00,WUHU21623XXSP,2013-07-23 21:47:00,
2013-07-23 14:48:00,68.7,53.8,29.95,West,270,2.0,2.0,59,0.00,,,0.00,WUHU21623XXSP,2013-07-23 21:48:00,
2013-07-23 14:51:00,68.7,53.8,29.95,NNE,22,1.6,2.0,59,0.00,,,0.00,WUHU21623XXSP,2013-07-23 21:51:00,
2013-07-23 14:52:00,68.7,53.8,29.95,NNE,22,1.6,2.0,59,0.00,,,0.00,WUHU21623XXSP,2013-07-23 21:52:00,
2013-07-23 14:53:00,68.7,53.8,29.95,NNW,337,0.0,2.0,59,0.00,,,0.00,WUHU21623XXSP,2013-07-23 21:53:00,
2013-07-23 14:56:00,68.7,53.8,29.95,NNW,337,0.0,2.0,59,0.00,,,0.00,WUHU21623XXSP,2013-07-23 21:56:00,
2013-07-23 14:57:00,68.7,53.8,29.95,NNW,337,0.0,1.6,59,0.00,,,0.00,WUHU21623XXSP,2013-07-23 21:57:00,
2013-07-23 15:00:00,68.5,54.1,29.95,ESE,112,0.0,1.6,60,0.00,,,0.00,WUHU21623XXSP,2013-07-23 22:00:00,
2013-07-23 15:01:00,68.5,54.1,29.95,ESE,112,0.0,0.0,60,0.00,,,0.00,WUHU21623XXSP,2013-07-23 22:01:00,
2013-07-23 15:03:00,68.5,54.1,29.95,ESE,112,0.0,0.0,60,0.00,,,0.00,WUHU21623XXSP,2013-07-23 22:03:00,
2013-07-23 15:06:00,68.4,54.0,29.95,West,270,4.9,4.9,60,0.00,,,0.00,WUHU21623XXSP,2013-07-23 22:06:00,
2013-07-23 15:07:00,68.4,54.0,29.95,West,270,4.9,4.9,60,0.00,,,0.00,WUHU21623XXSP,2013-07-23 22:07:00,
2013-07-23 15:08:00,68.4,54.0,29.95,West,270,4.9,4.9,60,0.00,,,0.00,WUHU21623XXSP,2013-07-23 22:08:00,
2013-07-23 15:12:00,68.5,54.1,29.95,West,270,6.3,6.3,60,0.00,,,0.00,WUHU21623XXSP,2013-07-23 22:12:00,
2013-07-23 15:13:00,68.4,54.0,29.95,North,0,0.0,6.3,60,0.00,,,0.00,WUHU21623XXSP,2013-07-23 22:13:00,
2013-07-23 15:17:00,68.4,54.4,29.95,ENE,67,0.0,6.3,61,0.00,,,0.00,WUHU21623XXSP,2013-07-23 22:17:00,
2013-07-23 15:18:00,68.4,54.4,29.95,ENE,67,0.0,6.3,61,0.00,,,0.00,WUHU21623XXSP,2013-07-23 22:18:00,
2013-07-23 15:22:00,68.5,54.6,29.95,WSW,247,0.0,0.0,61,0.00,,,0.00,WUHU21623XXSP,2013-07-23 22:22:00,
2013-07-23 15:23:00,68.5,54.6,29.95,WSW,247,0.0,0.0,61,0.00,,,0.00,WUHU21623XXSP,2013-07-23 22:23:00,
2013-07-23 15:24:00,68.5,54.6,29.95,WSW,247,0.0,0.0,61,0.00,,,0.00,WUHU21623XXSP,2013-07-23 22:24:00,
2013-07-23 15:28:00,68.9,54.5,29.95,NNW,337,0.0,0.0,60,0.00,,,0.00,WUHU21623XXSP,2013-07-23 22:28:00,
2013-07-23 15:29:00,68.9,54.5,29.95,NNW,337,0.0,0.0,60,0.00,,,0.00,WUHU21623XXSP,2013-07-23 22:29:00,
2013-07-23 15:33:00,68.9,54.5,29.94,WNW,292,0.4,0.4,60,0.00,,,0.00,WUHU21623XXSP,2013-07-23 22:33:00,
2013-07-23 15:34:00,68.9,54.5,29.94,WNW,292,0.4,0.4,60,0.00,,,0.00,WUHU21623XXSP,2013-07-23 22:34:00,
2013-07-23 15:35:00,68.9,54.5,29.94,WNW,292,0.4,0.4,60,0.00,,,0.00,WUHU21623XXSP,2013-07-23 22:35:00,
2013-07-23 15:39:00,68.7,54.3,29.94,ENE,67,0.0,0.4,60,0.00,,,0.00,WUHU21623XXSP,2013-07-23 22:39:00,
2013-07-23 15:40:00,68.7,54.3,29.94,NW,315,0.0,0.4,60,0.00,,,0.00,WUHU21623XXSP,2013-07-23 22:40:00,
2013-07-23 15:41:00,68.7,54.3,29.94,NW,315,0.0,0.4,60,0.00,,,0.00,WUHU21623XXSP,2013-07-23 22:41:00,
2013-07-23 15:44:00,68.7,54.3,29.94,NW,315,0.0,0.0,60,0.00,,,0.00,WUHU21623XXSP,2013-07-23 22:44:00,
2013-07-23 15:45:00,68.2,53.8,29.94,NNE,22,5.4,5.4,60,0.00,,,0.00,WUHU21623XXSP,2013-07-23 22:45:00,
2013-07-23 15:47:00,68.2,53.8,29.94,NNE,22,5.4,5.4,60,0.00,,,0.00,WUHU21623XXSP,2013-07-23 22:47:00,
2013-07-23 15:51:00,67.6,53.7,29.94,NNW,337,3.6,5.4,61,0.00,,,0.00,WUHU21623XXSP,2013-07-23 22:51:00,
2013-07-23 15:52:00,67.6,53.7,29.94,NNW,337,3.6,5.4,61,0.00,,,0.00,WUHU21623XXSP,2013-07-23 22:52:00,
2013-07-23 15:56:00,67.3,53.7,29.94,West,270,0.7,3.6,62,0.00,,,0.00,WUHU21623XXSP,2013-07-23 22:56:00,
2013-07-23 15:57:00,67.3,53.7,29.94,West,270,0.7,3.6,62,0.00,,,0.00,WUHU21623XXSP,2013-07-23 22:57:00,
2013-07-23 16:02:00,67.3,53.8,29.94,NNW,337,0.0,0.7,62,0.00,,,0.00,WUHU21623XXSP,2013-07-23 23:02:00,
2013-07-23 16:03:00,67.3,53.8,29.94,NNW,337,6.7,6.7,62,0.00,,,0.00,WUHU21623XXSP,2013-07-23 23:03:00,
2013-07-23 16:07:00,67.3,53.8,29.93,WNW,292,4.5,6.7,62,0.00,,,0.00,WUHU21623XXSP,2013-07-23 23:07:00,
2013-07-23 16:08:00,67.3,53.8,29.93,WNW,292,4.5,6.7,62,0.00,,,0.00,WUHU21623XXSP,2013-07-23 23:08:00,
2013-07-23 16:09:00,67.1,53.6,29.93,North,0,6.0,6.7,62,0.00,,,0.00,WUHU21623XXSP,2013-07-23 23:09:00,
2013-07-23 16:14:00,66.9,53.5,29.93,North,0,1.8,6.0,62,0.00,,,0.00,WUHU21623XXSP,2013-07-23 23:14:00,
2013-07-23 16:15:00,66.9,53.5,29.93,North,0,1.8,6.0,62,0.00,,,0.00,WUHU21623XXSP,2013-07-23 23:15:00,
2013-07-23 16:19:00,66.9,53.9,29.93,WSW,247,2.5,2.5,63,0.00,,,0.00,WUHU21623XXSP,2013-07-23 23:19:00,
2013-07-23 16:20:00,66.9,53.9,29.93,WSW,247,2.5,2.5,63,0.00,,,0.00,WUHU21623XXSP,2013-07-23 23:20:00,
2013-07-23 16:24:00,66.7,53.7,29.94,WSW,247,1.6,2.5,63,0.00,,,0.00,WUHU21623XXSP,2013-07-23 23:24:00,
2013-07-23 16:25:00,66.7,53.7,29.94,WSW,247,1.6,2.5,63,0.00,,,0.00,WUHU21623XXSP,2013-07-23 23:25:00,
2013-07-23 16:26:00,66.7,53.7,29.94,WSW,247,1.6,2.5,63,0.00,,,0.00,WUHU21623XXSP,2013-07-23 23:26:00,
2013-07-23 16:32:00,66.0,53.0,29.94,WSW,247,0.0,1.6,63,0.00,,,0.00,WUHU21623XXSP,2013-07-23 23:32:00,
2013-07-23 16:33:00,66.0,53.0,29.94,WSW,247,0.0,1.6,63,0.00,,,0.00,WUHU21623XXSP,2013-07-23 23:33:00,
2013-07-23 16:38:00,65.5,52.9,29.93,WSW,247,11.4,11.4,64,0.00,,,0.00,WUHU21623XXSP,2013-07-23 23:38:00,
2013-07-23 16:43:00,65.1,53.0,29.93,WSW,247,4.5,11.4,65,0.00,,,0.00,WUHU21623XXSP,2013-07-23 23:43:00,
2013-07-23 16:44:00,65.1,53.0,29.93,WSW,247,4.5,11.4,65,0.00,,,0.00,WUHU21623XXSP,2013-07-23 23:44:00,
2013-07-23 16:48:00,64.8,52.8,29.93,WSW,247,4.9,4.9,65,0.00,,,0.00,WUHU21623XXSP,2013-07-23 23:48:00,
2013-07-23 16:49:00,64.8,52.7,29.93,WSW,247,3.4,4.9,65,0.00,,,0.00,WUHU21623XXSP,2013-07-23 23:49:00,
2013-07-23 16:55:00,64.4,52.5,29.93,WSW,247,4.9,4.9,66,0.00,,,0.00,WUHU21623XXSP,2013-07-23 23:55:00,
2013-07-23 17:00:00,64.2,52.6,29.93,WSW,247,5.6,5.6,66,0.00,,,0.00,WUHU21623XXSP,2013-07-24 00:00:00,
2013-07-23 17:01:00,64.2,52.6,29.93,WSW,247,5.6,5.6,66,0.00,,,0.00,WUHU21623XXSP,2013-07-24 00:01:00,
2013-07-23 17:02:00,64.2,52.6,29.93,WSW,247,5.4,5.6,66,0.00,,,0.00,WUHU21623XXSP,2013-07-24 00:02:00,
2013-07-23 17:07:00,64.0,52.4,29.93,WSW,247,0.0,5.6,66,0.00,,,0.00,WUHU21623XXSP,2013-07-24 00:07:00,
2013-07-23 17:08:00,64.0,52.4,29.93,WSW,247,0.0,5.4,66,0.00,,,0.00,WUHU21623XXSP,2013-07-24 00:08:00,
2013-07-23 17:09:00,63.7,52.1,29.93,WSW,247,0.0,5.4,66,0.00,,,0.00,WUHU21623XXSP,2013-07-24 00:09:00,
2013-07-23 17:12:00,63.7,52.1,29.93,WSW,247,0.0,0.0,66,0.00,,,0.00,WUHU21623XXSP,2013-07-24 00:12:00,
2013-07-23 17:15:00,63.3,52.1,29.93,WSW,247,3.6,3.6,67,0.00,,,0.00,WUHU21623XXSP,2013-07-24 00:15:00,
2013-07-23 17:18:00,63.3,52.1,29.93,WSW,247,3.6,3.6,67,0.00,,,0.00,WUHU21623XXSP,2013-07-24 00:18:00,
2013-07-23 17:20:00,63.1,52.0,29.93,WSW,247,1.6,3.6,67,0.00,,,0.00,WUHU21623XXSP,2013-07-24 00:20:00,
2013-07-23 17:21:00,63.1,52.0,29.93,WSW,247,1.6,3.6,67,0.00,,,0.00,WUHU21623XXSP,2013-07-24 00:21:00,
2013-07-23 17:23:00,63.0,52.2,29.93,WSW,247,3.1,3.6,68,0.00,,,0.00,WUHU21623XXSP,2013-07-24 00:23:00,
2013-07-23 17:25:00,63.0,52.2,29.93,WSW,247,3.1,3.1,68,0.00,,,0.00,WUHU21623XXSP,2013-07-24 00:25:00,
2013-07-23 17:26:00,62.4,52.2,29.93,WNW,292,7.2,7.2,68,0.00,,,0.00,WUHU21623XXSP,2013-07-24 00:26:00,
2013-07-23 17:30:00,62.2,51.7,29.93,North,0,0.0,7.2,69,0.00,,,0.00,WUHU21623XXSP,2013-07-24 00:30:00,
2013-07-23 17:31:00,62.2,51.7,29.93,North,0,0.0,7.2,69,0.00,,,0.00,WUHU21623XXSP,2013-07-24 00:31:00,
2013-07-23 17:35:00,62.1,52.0,29.93,North,0,0.0,0.0,69,0.00,,,0.00,WUHU21623XXSP,2013-07-24 00:35:00,
2013-07-23 17:36:00,62.1,51.8,29.93,North,0,0.0,0.0,70,0.00,,,0.00,WUHU21623XXSP,2013-07-24 00:36:00,
2013-07-23 17:37:00,62.1,51.8,29.93,North,0,0.0,0.0,70,0.00,,,0.00,WUHU21623XXSP,2013-07-24 00:37:00,
2013-07-23 17:41:00,62.1,51.8,29.93,WSW,247,5.4,5.4,69,0.00,,,0.00,WUHU21623XXSP,2013-07-24 00:41:00,
2013-07-23 17:42:00,62.1,51.8,29.93,WSW,247,5.4,5.4,69,0.00,,,0.00,WUHU21623XXSP,2013-07-24 00:42:00,
2013-07-23 17:47:00,61.9,52.1,29.93,North,0,1.8,5.4,70,0.00,,,0.00,WUHU21623XXSP,2013-07-24 00:47:00,
2013-07-23 17:48:00,61.9,52.1,29.93,West,270,0.0,5.4,70,0.00,,,0.00,WUHU21623XXSP,2013-07-24 00:48:00,
2013-07-23 17:52:00,61.9,52.1,29.93,WSW,247,0.0,1.8,70,0.00,,,0.00,WUHU21623XXSP,2013-07-24 00:52:00,
2013-07-23 17:53:00,61.9,52.1,29.93,WSW,247,0.0,1.8,70,0.00,,,0.00,WUHU21623XXSP,2013-07-24 00:53:00,
2013-07-23 17:57:00,61.9,52.1,29.93,WSW,247,0.0,0.0,70,0.00,,,0.00,WUHU21623XXSP,2013-07-24 00:57:00,
2013-07-23 17:58:00,61.9,52.1,29.93,WSW,247,0.0,0.0,70,0.00,,,0.00,WUHU21623XXSP,2013-07-24 00:58:00,
2013-07-23 18:02:00,61.7,51.9,29.93,ENE,67,1.1,1.1,70,0.00,,,0.00,WUHU21623XXSP,2013-07-24 01:02:00,
2013-07-23 18:03:00,61.7,51.9,29.93,ENE,67,1.1,1.1,70,0.00,,,0.00,WUHU21623XXSP,2013-07-24 01:03:00,
2013-07-23 18:10:00,61.5,52.1,29.93,WSW,247,0.0,1.1,71,0.00,,,0.00,WUHU21623XXSP,2013-07-24 01:10:00,
2013-07-23 18:11:00,61.5,52.1,29.93,WSW,247,0.0,1.1,71,0.00,,,0.00,WUHU21623XXSP,2013-07-24 01:11:00,
2013-07-23 18:15:00,61.2,51.9,29.93,WSW,247,0.0,0.0,71,0.00,,,0.00,WUHU21623XXSP,2013-07-24 01:15:00,
2013-07-23 18:16:00,61.2,51.9,29.93,WSW,247,0.0,0.0,71,0.00,,,0.00,WUHU21623XXSP,2013-07-24 01:16:00,
2013-07-23 18:17:00,61.0,51.6,29.93,SSW,202,0.0,0.0,71,0.00,,,0.00,WUHU21623XXSP,2013-07-24 01:17:00,
2013-07-23 18:25:00,60.6,51.3,29.94,North,0,0.0,0.0,71,0.00,,,0.00,WUHU21623XXSP,2013-07-24 01:25:00,
2013-07-23 18:26:00,60.6,51.3,29.94,North,0,0.0,0.0,71,0.00,,,0.00,WUHU21623XXSP,2013-07-24 01:26:00,
2013-07-23 18:27:00,60.6,51.3,29.94,North,0,0.0,0.0,71,0.00,,,0.00,WUHU21623XXSP,2013-07-24 01:27:00,
2013-07-23 18:30:00,60.4,51.4,29.94,NW,315,0.0,0.0,72,0.00,,,0.00,WUHU21623XXSP,2013-07-24 01:30:00,
2013-07-23 18:31:00,60.4,51.4,29.94,NW,315,0.0,0.0,72,0.00,,,0.00,WUHU21623XXSP,2013-07-24 01:31:00,
2013-07-23 18:32:00,60.4,51.4,29.94,NW,315,0.0,0.0,72,0.00,,,0.00,WUHU21623XXSP,2013-07-24 01:32:00,
2013-07-23 18:35:00,60.4,51.4,29.94,West,270,5.6,5.6,72,0.00,,,0.00,WUHU21623XXSP,2013-07-24 01:35:00,
2013-07-23 18:36:00,60.4,51.4,29.94,West,270,5.6,5.6,72,0.00,,,0.00,WUHU21623XXSP,2013-07-24 01:36:00,
2013-07-23 18:39:00,60.4,51.4,29.94,NNW,337,1.1,5.6,72,0.00,,,0.00,WUHU21623XXSP,2013-07-24 01:39:00,
2013-07-23 18:40:00,60.4,51.4,29.94,NNW,337,1.1,5.6,72,0.00,,,0.00,WUHU21623XXSP,2013-07-24 01:40:00,
2013-07-23 18:41:00,60.4,51.4,29.94,NNW,337,1.1,5.6,72,0.00,,,0.00,WUHU21623XXSP,2013-07-24 01:41:00,
2013-07-23 18:44:00,60.4,51.8,29.94,North,0,0.0,1.1,73,0.00,,,0.00,WUHU21623XXSP,2013-07-24 01:44:00,
2013-07-23 18:45:00,60.4,51.8,29.94,WSW,247,0.0,1.1,73,0.00,,,0.00,WUHU21623XXSP,2013-07-24 01:45:00,
2013-07-23 18:46:00,60.4,51.8,29.94,WSW,247,0.0,1.1,73,0.00,,,0.00,WUHU21623XXSP,2013-07-24 01:46:00,
2013-07-23 18:50:00,61.0,52.3,29.94,WSW,247,0.0,0.0,73,0.00,,,0.00,WUHU21623XXSP,2013-07-24 01:50:00,
2013-07-23 18:51:00,61.2,52.1,29.94,WSW,247,1.1,1.1,72,0.00,,,0.00,WUHU21623XXSP,2013-07-24 01:51:00,
2013-07-23 18:52:00,61.2,52.1,29.94,WSW,247,1.1,1.1,72,0.00,,,0.00,WUHU21623XXSP,2013-07-24 01:52:00,
2013-07-23 18:56:00,61.5,52.4,29.94,WSW,247,0.0,1.1,72,0.00,,,0.00,WUHU21623XXSP,2013-07-24 01:56:00,
2013-07-23 18:57:00,61.5,52.4,29.94,WSW,247,0.0,1.1,72,0.00,,,0.00,WUHU21623XXSP,2013-07-24 01:57:00,
2013-07-23 19:00:00,62.1,52.6,29.94,WSW,247,0.0,1.1,71,0.00,,,0.00,WUHU21623XXSP,2013-07-24 02:00:00,
2013-07-23 19:02:00,62.1,52.6,29.94,WSW,247,0.0,0.0,71,0.00,,,0.00,WUHU21623XXSP,2013-07-24 02:02:00,
2013-07-23 19:07:00,63.1,53.2,29.94,WSW,247,0.0,4.5,70,0.00,,,0.00,WUHU21623XXSP,2013-07-24 02:07:00,
2013-07-23 19:08:00,63.1,53.2,29.94,WSW,247,0.0,4.5,70,0.00,,,0.00,WUHU21623XXSP,2013-07-24 02:08:00,
2013-07-23 19:12:00,64.0,53.7,29.95,WSW,247,1.1,4.5,68,0.00,,,0.00,WUHU21623XXSP,2013-07-24 02:12:00,
2013-07-23 19:13:00,64.0,53.7,29.95,WSW,247,1.1,4.5,68,0.00,,,0.00,WUHU21623XXSP,2013-07-24 02:13:00,
2013-07-23 19:14:00,64.0,53.7,29.95,WSW,247,1.1,2.7,68,0.00,,,0.00,WUHU21623XXSP,2013-07-24 02:14:00,
2013-07-23 19:18:00,64.6,53.8,29.95,WSW,247,1.3,2.7,68,0.00,,,0.00,WUHU21623XXSP,2013-07-24 02:18:00,
2013-07-23 19:19:00,65.1,53.7,29.94,WSW,247,0.0,2.7,67,0.00,,,0.00,WUHU21623XXSP,2013-07-24 02:19:00,
2013-07-23 19:23:00,65.1,53.4,29.94,WSW,247,0.0,1.3,66,0.00,,,0.00,WUHU21623XXSP,2013-07-24 02:23:00,
2013-07-23 19:24:00,65.1,53.4,29.94,WSW,247,0.0,1.3,66,0.00,,,0.00,WUHU21623XXSP,2013-07-24 02:24:00,
2013-07-23 19:29:00,65.3,53.6,29.94,WSW,247,0.0,3.8,66,0.00,,,0.00,WUHU21623XXSP,2013-07-24 02:29:00,
2013-07-23 19:30:00,65.3,53.6,29.94,WSW,247,0.0,3.8,66,0.00,,,0.00,WUHU21623XXSP,2013-07-24 02:30:00,
2013-07-23 19:35:00,65.1,53.0,29.95,WSW,247,0.0,3.8,65,0.00,,,0.00,WUHU21623XXSP,2013-07-24 02:35:00,
2013-07-23 19:40:00,64.8,53.1,29.95,West,270,0.0,0.0,66,0.00,,,0.00,WUHU21623XXSP,2013-07-24 02:40:00,
2013-07-23 19:41:00,64.2,52.9,29.95,WSW,247,1.8,1.8,66,0.00,,,0.00,WUHU21623XXSP,2013-07-24 02:41:00,
2013-07-23 19:45:00,64.0,52.4,29.95,WSW,247,0.0,1.8,66,0.00,,,0.00,WUHU21623XXSP,2013-07-24 02:45:00,
2013-07-23 19:46:00,64.0,52.4,29.95,WSW,247,0.0,1.8,66,0.00,,,0.00,WUHU21623XXSP,2013-07-24 02:46:00,
2013-07-23 19:51:00,63.1,51.5,29.94,WSW,247,2.7,2.7,66,0.00,,,0.00,WUHU21623XXSP,2013-07-24 02:51:00,
2013-07-23 19:53:00,62.2,51.1,29.94,NE,45,0.0,2.7,67,0.00,,,0.00,WUHU21623XXSP,2013-07-24 02:53:00,
2013-07-23 19:57:00,61.5,50.5,29.95,NNE,22,0.0,2.7,68,0.00,,,0.00,WUHU21623XXSP,2013-07-24 02:57:00,
2013-07-23 19:58:00,61.5,50.5,29.95,NNE,22,0.0,2.7,68,0.00,,,0.00,WUHU21623XXSP,2013-07-24 02:58:00,
2013-07-23 19:59:00,61.5,50.5,29.95,NNE,22,0.0,0.0,68,0.00,,,0.00,WUHU21623XXSP,2013-07-24 02:59:00,
2013-07-23 20:03:00,60.6,50.5,29.94,WSW,247,0.0,0.0,69,0.00,,,0.00,WUHU21623XXSP,2013-07-24 03:03:00,
2013-07-23 20:04:00,60.1,50.4,29.95,WNW,292,0.0,0.0,70,0.00,,,0.00,WUHU21623XXSP,2013-07-24 03:04:00,
2013-07-23 20:09:00,59.5,49.8,29.95,NNE,22,0.0,0.0,70,0.00,,,0.00,WUHU21623XXSP,2013-07-24 03:09:00,
2013-07-23 20:10:00,59.5,49.8,29.95,NNE,22,0.0,0.0,70,0.00,,,0.00,WUHU21623XXSP,2013-07-24 03:10:00,
2013-07-23 20:14:00,58.8,49.5,29.95,NNE,22,0.0,0.0,71,0.00,,,0.00,WUHU21623XXSP,2013-07-24 03:14:00,
2013-07-23 20:15:00,58.8,49.5,29.95,NNE,22,0.0,0.0,71,0.00,,,0.00,WUHU21623XXSP,2013-07-24 03:15:00,
2013-07-23 20:19:00,58.6,49.8,29.95,North,0,0.0,0.0,72,0.00,,,0.00,WUHU21623XXSP,2013-07-24 03:19:00,
2013-07-23 20:20:00,58.6,49.8,29.95,North,0,0.0,0.0,72,0.00,,,0.00,WUHU21623XXSP,2013-07-24 03:20:00,
2013-07-23 20:21:00,58.3,49.3,29.95,NNW,337,0.0,0.0,72,0.00,,,0.00,WUHU21623XXSP,2013-07-24 03:21:00,
2013-07-23 20:24:00,58.3,49.3,29.95,NNW,337,0.0,0.0,72,0.00,,,0.00,WUHU21623XXSP,2013-07-24 03:24:00,
2013-07-23 20:25:00,57.9,49.3,29.95,East,90,0.0,0.0,73,0.00,,,0.00,WUHU21623XXSP,2013-07-24 03:25:00,
2013-07-23 20:27:00,57.9,49.3,29.95,East,90,0.0,0.0,73,0.00,,,0.00,WUHU21623XXSP,2013-07-24 03:27:00,
2013-07-23 20:30:00,57.7,49.5,29.96,SW,225,0.0,0.0,74,0.00,,,0.00,WUHU21623XXSP,2013-07-24 03:30:00,
2013-07-23 20:32:00,57.7,49.5,29.96,SW,225,0.0,0.0,74,0.00,,,0.00,WUHU21623XXSP,2013-07-24 03:32:00,
2013-07-23 20:33:00,57.7,49.5,29.96,SW,225,0.0,0.0,74,0.00,,,0.00,WUHU21623XXSP,2013-07-24 03:33:00,
2013-07-23 20:37:00,57.0,48.7,29.96,NW,315,0.0,0.0,74,0.00,,,0.00,WUHU21623XXSP,2013-07-24 03:37:00,
2013-07-23 20:38:00,56.8,48.7,29.96,South,180,0.0,0.0,74,0.00,,,0.00,WUHU21623XXSP,2013-07-24 03:38:00,
2013-07-23 20:39:00,56.8,48.7,29.96,South,180,0.0,0.0,74,0.00,,,0.00,WUHU21623XXSP,2013-07-24 03:39:00,
2013-07-23 20:42:00,56.8,48.7,29.96,South,180,0.0,0.0,74,0.00,,,0.00,WUHU21623XXSP,2013-07-24 03:42:00,
2013-07-23 20:44:00,56.8,48.9,29.96,SSE,157,0.0,0.0,75,0.00,,,0.00,WUHU21623XXSP,2013-07-24 03:44:00,
2013-07-23 20:45:00,56.8,48.9,29.96,SSE,157,0.0,0.0,75,0.00,,,0.00,WUHU21623XXSP,2013-07-24 03:45:00,
2013-07-23 20:49:00,56.5,48.9,29.96,WSW,247,0.0,0.0,76,0.00,,,0.00,WUHU21623XXSP,2013-07-24 03:49:00,
2013-07-23 20:52:00,56.5,48.9,29.96,WSW,247,0.0,0.0,76,0.00,,,0.00,WUHU21623XXSP,2013-07-24 03:52:00,
2013-07-23 20:54:00,56.5,48.9,29.96,WSW,247,0.0,0.0,76,0.00,,,0.00,WUHU21623XXSP,2013-07-24 03:54:00,
2013-07-23 20:55:00,56.5,48.9,29.96,WSW,247,0.0,0.0,76,0.00,,,0.00,WUHU21623XXSP,2013-07-24 03:55:00,
2013-07-23 20:56:00,56.5,48.9,29.97,WSW,247,0.0,0.0,77,0.00,,,0.00,WUHU21623XXSP,2013-07-24 03:56:00,
2013-07-23 20:57:00,56.5,48.9,29.97,WSW,247,0.0,0.0,77,0.00,,,0.00,WUHU21623XXSP,2013-07-24 03:57:00,
2013-07-23 21:00:00,56.3,49.1,29.97,NW,315,0.0,0.0,77,0.00,,,0.00,WUHU21623XXSP,2013-07-24 04:00:00,
2013-07-23 21:01:00,56.3,49.1,29.97,NW,315,0.0,0.0,77,0.00,,,0.00,WUHU21623XXSP,2013-07-24 04:01:00,
2013-07-23 21:06:00,56.1,48.9,29.97,West,270,0.0,0.0,77,0.00,,,0.00,WUHU21623XXSP,2013-07-24 04:06:00,
2013-07-23 21:11:00,55.9,48.8,29.97,SW,225,0.0,0.0,77,0.00,,,0.00,WUHU21623XXSP,2013-07-24 04:11:00,
2013-07-23 21:16:00,55.8,48.6,29.97,West,270,0.0,0.0,77,0.00,,,0.00,WUHU21623XXSP,2013-07-24 04:16:00,
2013-07-23 21:17:00,55.8,48.6,29.97,West,270,0.0,0.0,77,0.00,,,0.00,WUHU21623XXSP,2013-07-24 04:17:00,
2013-07-23 21:21:00,55.6,48.4,29.98,WNW,292,0.0,0.0,78,0.00,,,0.00,WUHU21623XXSP,2013-07-24 04:21:00,
2013-07-23 21:22:00,55.6,48.4,29.98,WNW,292,0.0,0.0,78,0.00,,,0.00,WUHU21623XXSP,2013-07-24 04:22:00,
2013-07-23 21:27:00,55.2,48.6,29.98,West,270,0.0,0.0,78,0.00,,,0.00,WUHU21623XXSP,2013-07-24 04:27:00,
2013-07-23 21:32:00,55.2,48.4,29.98,West,270,0.0,0.0,78,0.00,,,0.00,WUHU21623XXSP,2013-07-24 04:32:00,
2013-07-23 21:33:00,55.2,48.4,29.98,West,270,0.0,0.0,78,0.00,,,0.00,WUHU21623XXSP,2013-07-24 04:33:00,
2013-07-23 21:37:00,55.0,48.3,29.98,SSW,202,0.0,0.0,78,0.00,,,0.00,WUHU21623XXSP,2013-07-24 04:37:00,
2013-07-23 21:38:00,55.0,48.3,29.98,SSW,202,0.0,0.0,78,0.00,,,0.00,WUHU21623XXSP,2013-07-24 04:38:00,
2013-07-23 21:44:00,54.9,48.4,29.99,SW,225,0.0,0.0,79,0.00,,,0.00,WUHU21623XXSP,2013-07-24 04:44:00,
2013-07-23 21:45:00,54.9,48.4,29.99,SW,225,0.0,0.0,79,0.00,,,0.00,WUHU21623XXSP,2013-07-24 04:45:00,
2013-07-23 21:49:00,54.7,48.3,29.99,SW,225,0.0,0.0,79,0.00,,,0.00,WUHU21623XXSP,2013-07-24 04:49:00,
2013-07-23 21:50:00,54.7,48.3,29.99,SW,225,0.0,0.0,79,0.00,,,0.00,WUHU21623XXSP,2013-07-24 04:50:00,
2013-07-23 21:54:00,54.7,48.3,29.99,WSW,247,0.0,0.0,79,0.00,,,0.00,WUHU21623XXSP,2013-07-24 04:54:00,
2013-07-23 21:55:00,54.7,48.3,29.99,WSW,247,0.0,0.0,79,0.00,,,0.00,WUHU21623XXSP,2013-07-24 04:55:00,
2013-07-23 22:00:00,54.7,48.6,29.99,WSW,247,0.0,0.0,80,0.00,,,0.00,WUHU21623XXSP,2013-07-24 05:00:00,
2013-07-23 22:01:00,54.7,48.6,29.99,WSW,247,0.0,0.0,80,0.00,,,0.00,WUHU21623XXSP,2013-07-24 05:01:00,
2013-07-23 22:05:00,54.7,48.6,29.99,West,270,0.0,0.0,80,0.00,,,0.00,WUHU21623XXSP,2013-07-24 05:05:00,
2013-07-23 22:06:00,54.7,48.6,29.99,West,270,1.6,1.6,80,0.00,,,0.00,WUHU21623XXSP,2013-07-24 05:06:00,
2013-07-23 22:10:00,54.7,48.6,30.00,West,270,0.0,1.6,80,0.00,,,0.00,WUHU21623XXSP,2013-07-24 05:10:00,
2013-07-23 22:11:00,54.7,48.6,30.00,West,270,0.0,1.6,80,0.00,,,0.00,WUHU21623XXSP,2013-07-24 05:11:00,
2013-07-23 22:15:00,54.7,48.6,30.00,WSW,247,0.0,1.6,80,0.00,,,0.00,WUHU21623XXSP,2013-07-24 05:15:00,
2013-07-23 22:16:00,54.7,48.6,30.00,WSW,247,0.0,1.6,80,0.00,,,0.00,WUHU21623XXSP,2013-07-24 05:16:00,
2013-07-23 22:17:00,54.7,48.9,29.99,WSW,247,1.8,1.8,81,0.00,,,0.00,WUHU21623XXSP,2013-07-24 05:17:00,
2013-07-23 22:20:00,54.7,48.9,29.99,WSW,247,1.8,1.8,81,0.00,,,0.00,WUHU21623XXSP,2013-07-24 05:20:00,
2013-07-23 22:23:00,54.7,48.9,30.00,WSW,247,0.0,1.8,81,0.00,,,0.00,WUHU21623XXSP,2013-07-24 05:23:00,
2013-07-23 22:25:00,54.7,48.9,30.00,WSW,247,0.0,1.8,81,0.00,,,0.00,WUHU21623XXSP,2013-07-24 05:25:00,
2013-07-23 22:28:00,54.7,48.9,30.00,WSW,247,0.0,0.0,81,0.00,,,0.00,WUHU21623XXSP,2013-07-24 05:28:00,
2013-07-23 22:29:00,54.7,48.9,30.00,WSW,247,0.0,0.0,81,0.00,,,0.00,WUHU21623XXSP,2013-07-24 05:29:00,
2013-07-23 22:31:00,54.7,48.9,30.00,WSW,247,0.0,0.0,81,0.00,,,0.00,WUHU21623XXSP,2013-07-24 05:31:00,
2013-07-23 22:33:00,54.7,48.9,30.00,West,270,0.0,0.0,81,0.00,,,0.00,WUHU21623XXSP,2013-07-24 05:33:00,
2013-07-23 22:34:00,54.7,48.9,30.00,West,270,0.0,0.0,81,0.00,,,0.00,WUHU21623XXSP,2013-07-24 05:34:00,
2013-07-23 22:38:00,54.5,48.8,30.00,SW,225,0.0,0.0,81,0.00,,,0.00,WUHU21623XXSP,2013-07-24 05:38:00,
2013-07-23 22:39:00,54.5,48.8,30.00,SW,225,0.0,0.0,81,0.00,,,0.00,WUHU21623XXSP,2013-07-24 05:39:00,
2013-07-23 22:43:00,54.5,49.1,30.00,SSW,202,0.0,0.0,82,0.00,,,0.00,WUHU21623XXSP,2013-07-24 05:43:00,
2013-07-23 22:44:00,54.5,49.1,30.00,SSW,202,0.0,0.0,82,0.00,,,0.00,WUHU21623XXSP,2013-07-24 05:44:00,
2013-07-23 22:51:00,54.7,49.3,30.00,WSW,247,0.0,0.0,82,0.00,,,0.00,WUHU21623XXSP,2013-07-24 05:51:00,
2013-07-23 22:56:00,54.7,49.1,30.00,SW,225,0.0,0.0,82,0.00,,,0.00,WUHU21623XXSP,2013-07-24 05:56:00,
2013-07-23 23:01:00,54.5,49.1,30.00,West,270,0.0,0.0,82,0.00,,,0.00,WUHU21623XXSP,2013-07-24 06:01:00,
2013-07-23 23:02:00,54.5,49.1,30.00,West,270,0.0,0.0,82,0.00,,,0.00,WUHU21623XXSP,2013-07-24 06:02:00,
2013-07-23 23:08:00,54.5,49.1,29.99,WSW,247,0.0,0.0,82,0.00,,,0.00,WUHU21623XXSP,2013-07-24 06:08:00,
2013-07-23 23:14:00,54.3,48.9,29.99,WSW,247,0.0,0.0,82,0.00,,,0.00,WUHU21623XXSP,2013-07-24 06:14:00,
2013-07-23 23:15:00,54.3,48.9,29.99,WSW,247,0.0,0.0,82,0.00,,,0.00,WUHU21623XXSP,2013-07-24 06:15:00,
2013-07-23 23:19:00,54.3,48.9,29.99,WSW,247,0.0,0.0,82,0.00,,,0.00,WUHU21623XXSP,2013-07-24 06:19:00,
2013-07-23 23:20:00,54.3,48.9,29.99,WSW,247,0.0,0.0,82,0.00,,,0.00,WUHU21623XXSP,2013-07-24 06:20:00,
2013-07-23 23:24:00,54.3,49.2,29.99,SW,225,0.0,0.0,83,0.00,,,0.00,WUHU21623XXSP,2013-07-24 06:24:00,
2013-07-23 23:25:00,54.3,49.2,29.99,SW,225,0.0,0.0,83,0.00,,,0.00,WUHU21623XXSP,2013-07-24 06:25:00,
2013-07-23 23:29:00,54.3,48.9,29.99,WSW,247,0.0,0.0,82,0.00,,,0.00,WUHU21623XXSP,2013-07-24 06:29:00,
2013-07-23 23:30:00,54.3,48.9,29.99,WSW,247,0.0,0.0,82,0.00,,,0.00,WUHU21623XXSP,2013-07-24 06:30:00,
2013-07-23 23:35:00,54.3,48.9,29.99,WSW,247,0.0,0.0,82,0.00,,,0.00,WUHU21623XXSP,2013-07-24 06:35:00,
2013-07-23 23:36:00,54.3,49.2,29.99,WSW,247,0.0,0.0,83,0.00,,,0.00,WUHU21623XXSP,2013-07-24 06:36:00,
2013-07-23 23:42:00,54.1,49.1,29.99,SW,225,0.0,0.0,83,0.00,,,0.00,WUHU21623XXSP,2013-07-24 06:42:00,
2013-07-23 23:47:00,54.0,48.9,30.00,SW,225,0.0,0.0,83,0.00,,,0.00,WUHU21623XXSP,2013-07-24 06:47:00,
2013-07-23 23:48:00,54.0,48.9,30.00,SW,225,0.0,0.0,83,0.00,,,0.00,WUHU21623XXSP,2013-07-24 06:48:00,
2013-07-23 23:52:00,53.8,48.7,30.00,WSW,247,0.0,0.0,83,0.00,,,0.00,WUHU21623XXSP,2013-07-24 06:52:00,
2013-07-23 23:53:00,53.8,48.7,30.00,WSW,247,0.0,0.0,83,0.00,,,0.00,WUHU21623XXSP,2013-07-24 06:53:00,
2013-07-23 23:57:00,53.8,48.7,30.00,WSW,247,0.0,0.0,83,0.00,,,0.00,WUHU21623XXSP,2013-07-24 06:57:00,
2013-07-23 23:58:00,53.8,48.7,30.00,WSW,247,0.0,0.0,83,0.00,,,0.00,WUHU21623XXSP,2013-07-24 06:58:00,